カタログに戻る

STARLINK-35263

運用中通信SSO
NORAD 65597·PAYLOAD·🇺🇸 United States

打ち上げ Sep 13, 2025 から Cape Canaveral Space Force Station

Loading…

次のパス (今後24時間)

TLE

最新Source: CelesTrak SupGP

元期: Sep 14, 2026, 21:28 UTC

1 65597C 25207F   26257.89493056 -.00024557  00000+0 -14932-2 0  2576
2 65597  97.2848 320.5718 0001927  93.0623 260.0076 15.10555456    19

AllMySatでSTARLINK-35263をリアルタイム追跡

Download on the App Store